Weather in Cheyenne

United States     41°08′04″N   104°47′53″W
temp.,
°C
wind,
m/s
gust,
m/s
humid.,
%
clouds,
%
prec.,
mm/h
press.,
hPa
HPBL,
m
6 may, thu
thu601:00+4sw22800 0.0 102632
04:00+3ssw22845 0.0 102611
07:00+2ssw35901 0.0 102770
10:00+9ssw44570 0.0 1025419
13:00+15sse15290 0.0 10201790
16:00+18s56314 0.0 10171507
19:00+17s76365 0.0 1015784
22:00+12s510540 0.0 1017181
7 may, fri
fri701:00+10ssw59570 0.0 1017165
04:00+9sw455526 0.0 101559
07:00+10w33350 0.0 101319
10:00+18wsw24262 0.0 1010333
13:00+24w3818100 0.0 10063628
16:00+23wnw81024100 0.0 10042940
19:00+19sse673520 0.1 1004797
22:00+13s514586 0.0 1006337
8 may, sat
sat801:00+12s7147697 0.0 1005308
04:00+11ssw5107599 0.0 1002174
07:00+11wsw4853100 0.0 1002102
10:00+18w81028100 0.0 10001045
13:00+20w81125100 0.0 9992952
16:00+16n5740100 0.6 9981473
19:00+12wnw5952100 6.5 10021290
22:00+9wnw111633100 0.0 1005701
9 may, sun
sun901:00+5wnw1519323 0.1 1009614
04:00+3wnw611358 0.0 1012470
07:00+2w6123510 0.0 1013438
10:00+6wnw1014272 0.0 10111701
13:00+10wnw9122211 0.0 10093022
16:00+13nw81118100 0.0 10073678
19:00+11nnw6826100 0.0 1009979
22:00+4ene5771100 0.9 1017436
10 may, mon
mon1001:00+1ese4799100 3.4 1018251
04:00+2s2498100 1.9 1017221
07:00+2ese23100100 4.6 1018206
10:00+1sse47100100 4.3 1020324
13:00+1se69100100 8.5 1021335
16:00+1se610100100 0.8 1022414
19:000se59100100 2.3 1024489
22:000se61098100 0.4 1025579